Location: Lhota
(50.0887°N, 14.0116°E)
Time: 21:34:20
(UTC+00:00)

Exosat Rocket - Pass Details

Date: 19 May 2025
Orbit: 761 x 2512 km, 72.3° (Epoch: 15 June)

Event Time Altitude Azimuth Distance (km) Brightness Sun altitude
Rises 23:10:11 0° 328° (NNW) 3,333 7.7 -19.9°
Reaches altitude 10° 23:12:42 10° 321° (NW) 2,331 6.7 -19.9°
Maximum altitude 23:17:24 40° 252° (WSW) 1,114 4.1 -19.8°
Enters shadow 23:18:40 34° 218° (SW) 1,253 4.2 -19.8°
